timestamp,wind_dir_avg,wind_spd_avg,wind_spd_max_dir,wind_spd_gust,battery_voltage,lat,long
2022-01-10 00:04:00+00:00,235.0,12.9,239.0,14.64,12.49,47.59359,-54.27349
2022-01-10 00:14:01+00:00,227.0,11.27,229.0,14.62,12.49,47.59359,-54.27349
2022-01-10 00:24:01+00:00,232.0,10.13,236.0,13.09,12.49,47.59359,-54.27349
2022-01-10 00:34:01+00:00,232.0,10.36,237.0,12.26,12.49,47.59359,-54.27349
2022-01-10 00:44:01+00:00,223.0,10.39,231.0,13.4,12.49,47.59359,-54.27349
2022-01-10 00:54:01+00:00,231.0,11.53,225.0,13.0,12.49,47.59359,-54.27349
2022-01-10 01:04:01+00:00,226.0,10.24,217.0,15.05,12.49,47.59359,-54.27349
2022-01-10 01:14:01+00:00,222.0,11.29,234.0,14.9,12.41,47.59359,-54.27349
2022-01-10 01:24:01+00:00,222.0,10.95,223.0,13.87,12.41,47.59359,-54.27349
2022-01-10 01:34:01+00:00,224.0,11.61,231.0,14.56,12.41,47.59359,-54.27349
2022-01-10 01:44:01+00:00,208.0,13.85,206.0,15.52,12.41,47.59359,-54.27349
2022-01-10 01:54:01+00:00,214.0,13.92,221.0,18.16,12.41,47.59359,-54.27349
2022-01-10 02:04:01+00:00,209.0,14.26,216.0,16.65,12.41,47.59359,-54.27349
2022-01-10 02:14:01+00:00,207.0,15.8,208.0,21.12,12.41,47.59359,-54.27349
2022-01-10 02:24:01+00:00,209.0,14.56,217.0,18.12,12.41,47.59359,-54.27349
2022-01-10 02:34:01+00:00,211.0,15.46,234.0,20.58,12.41,47.59359,-54.27349
2022-01-10 02:44:01+00:00,207.0,15.79,211.0,18.41,12.41,47.59359,-54.27349
2022-01-10 02:54:01+00:00,208.0,16.15,222.0,19.47,12.41,47.59359,-54.27349
2022-01-10 03:04:01+00:00,209.0,15.7,211.0,18.26,12.41,47.59359,-54.27349
2022-01-10 03:14:00+00:00,206.0,16.83,198.0,19.95,12.41,47.59359,-54.27349
2022-01-10 03:24:00+00:00,208.0,16.06,208.0,19.4,12.41,47.59359,-54.27349
2022-01-10 03:34:00+00:00,205.0,16.86,203.0,20.76,12.41,47.59359,-54.27349
2022-01-10 03:44:00+00:00,209.0,18.44,219.0,23.5,12.41,47.59359,-54.27349
2022-01-10 03:54:00+00:00,203.0,17.92,207.0,21.42,12.41,47.59359,-54.27349
2022-01-10 04:04:00+00:00,205.0,17.45,201.0,20.95,12.41,47.59359,-54.27349
2022-01-10 04:14:01+00:00,204.0,17.05,211.0,19.37,12.41,47.59359,-54.27349
2022-01-10 04:24:01+00:00,206.0,16.91,208.0,19.48,12.41,47.59359,-54.27349
2022-01-10 04:34:01+00:00,203.0,17.04,197.0,19.75,12.41,47.59359,-54.27349
2022-01-10 04:44:01+00:00,204.0,16.53,213.0,19.58,12.41,47.59359,-54.27349
2022-01-10 04:54:01+00:00,208.0,18.26,219.0,22.78,12.41,47.59359,-54.27349
2022-01-10 05:04:01+00:00,205.0,17.64,218.0,20.1,12.41,47.59359,-54.27349
2022-01-10 05:14:00+00:00,208.0,18.37,222.0,24.83,12.41,47.59359,-54.27349
2022-01-10 05:24:00+00:00,207.0,18.86,220.0,26.52,12.41,47.59359,-54.27349
2022-01-10 05:34:00+00:00,207.0,17.4,225.0,22.12,12.41,47.59359,-54.27349
2022-01-10 05:44:00+00:00,205.0,16.56,198.0,19.38,12.41,47.59359,-54.27349
2022-01-10 05:54:00+00:00,209.0,18.46,224.0,24.24,12.41,47.59359,-54.27349
2022-01-10 06:04:00+00:00,204.0,17.74,213.0,20.82,12.41,47.59359,-54.27349
2022-01-10 06:14:01+00:00,207.0,16.11,202.0,20.33,12.33,47.59359,-54.27349
2022-01-10 06:24:01+00:00,209.0,17.15,213.0,21.52,12.33,47.59359,-54.27349
2022-01-10 06:34:01+00:00,214.0,19.36,220.0,22.88,12.33,47.59359,-54.27349
2022-01-10 06:44:01+00:00,214.0,17.9,224.0,22.07,12.33,47.59359,-54.27349
2022-01-10 06:54:01+00:00,217.0,18.74,218.0,22.57,12.33,47.59359,-54.27349
2022-01-10 07:04:01+00:00,212.0,18.43,218.0,21.64,12.33,47.59359,-54.27349
2022-01-10 07:14:00+00:00,213.0,19.69,212.0,23.12,12.33,47.59359,-54.27349
2022-01-10 07:24:00+00:00,217.0,17.31,224.0,20.85,12.33,47.59359,-54.27349
2022-01-10 07:34:00+00:00,215.0,17.06,213.0,21.48,12.33,47.59359,-54.27349
2022-01-10 07:44:00+00:00,216.0,17.22,212.0,20.29,12.33,47.59359,-54.27349
2022-01-10 07:54:00+00:00,220.0,15.35,221.0,17.97,12.33,47.59359,-54.27349
2022-01-10 08:04:00+00:00,224.0,17.74,227.0,22.93,12.33,47.59359,-54.27349
2022-01-10 08:14:01+00:00,224.0,17.13,227.0,20.58,12.25,47.59359,-54.27349
2022-01-10 08:24:01+00:00,222.0,16.84,217.0,19.36,12.25,47.59359,-54.27349
2022-01-10 08:34:01+00:00,227.0,14.84,222.0,18.75,12.25,47.59359,-54.27349
2022-01-10 08:44:01+00:00,231.0,16.04,229.0,17.34,12.25,47.59359,-54.27349
2022-01-10 08:54:01+00:00,234.0,15.32,230.0,17.13,12.25,47.59359,-54.27349
2022-01-10 09:04:01+00:00,234.0,14.83,235.0,17.06,12.25,47.59359,-54.27349
2022-01-10 09:14:00+00:00,230.0,16.38,228.0,17.88,12.25,47.59359,-54.27349
2022-01-10 09:24:00+00:00,226.0,16.74,223.0,18.49,12.25,47.59359,-54.27349
2022-01-10 09:34:00+00:00,235.0,15.36,231.0,18.0,12.25,47.59359,-54.27349
2022-01-10 09:44:00+00:00,232.0,16.13,229.0,18.56,12.25,47.59359,-54.27349
2022-01-10 09:54:00+00:00,228.0,16.28,225.0,18.7,12.25,47.59359,-54.27349
2022-01-10 10:04:00+00:00,228.0,16.24,225.0,18.94,12.25,47.59359,-54.27349
2022-01-10 10:14:00+00:00,234.0,15.13,233.0,17.54,12.25,47.59359,-54.27349
2022-01-10 10:24:00+00:00,233.0,14.47,233.0,16.96,12.25,47.59359,-54.27349
2022-01-10 10:34:00+00:00,232.0,15.36,233.0,18.31,12.25,47.59359,-54.27349
2022-01-10 10:44:00+00:00,233.0,13.57,234.0,17.15,12.25,47.59359,-54.27349
2022-01-10 10:54:00+00:00,242.0,13.38,246.0,15.62,12.25,47.59359,-54.27349
2022-01-10 11:04:00+00:00,238.0,14.76,234.0,17.22,12.25,47.59359,-54.27349
2022-01-10 11:14:00+00:00,240.0,14.52,242.0,16.73,12.25,47.59359,-54.27349
2022-01-10 11:24:00+00:00,238.0,14.45,234.0,16.98,12.25,47.59359,-54.27349
2022-01-10 11:34:00+00:00,237.0,14.47,238.0,17.11,12.25,47.59359,-54.27349
2022-01-10 11:44:00+00:00,229.0,9.58,239.0,13.76,12.25,47.59359,-54.27349
2022-01-10 11:54:00+00:00,239.0,11.57,241.0,14.34,12.25,47.59359,-54.27349
2022-01-10 12:04:00+00:00,231.0,9.47,243.0,14.21,12.25,47.59359,-54.27349
2022-01-10 12:14:00+00:00,239.0,11.99,242.0,15.12,12.25,47.59359,-54.27349
2022-01-10 12:24:00+00:00,239.0,8.69,246.0,12.4,12.25,47.59359,-54.27349
2022-01-10 12:34:00+00:00,239.0,9.77,248.0,13.58,12.25,47.59359,-54.27349
2022-01-10 12:44:00+00:00,238.0,8.84,247.0,13.12,12.25,47.59359,-54.27349
2022-01-10 12:54:00+00:00,244.0,9.94,251.0,13.55,12.25,47.59359,-54.27349
2022-01-10 13:04:00+00:00,243.0,13.05,247.0,14.8,12.25,47.59359,-54.27349
2022-01-10 14:14:01+00:00,260.0,10.26,260.0,13.22,12.65,47.59359,-54.27349
2022-01-10 14:24:01+00:00,252.0,7.42,249.0,8.19,12.65,47.59359,-54.27349
2022-01-10 14:34:01+00:00,256.0,10.03,260.0,13.28,12.65,47.59359,-54.27349
2022-01-10 14:44:01+00:00,243.0,6.94,249.0,8.16,12.65,47.59359,-54.27349
2022-01-10 14:54:01+00:00,240.0,7.75,240.0,8.51,12.65,47.59359,-54.27349
2022-01-10 15:04:01+00:00,245.0,7.09,246.0,8.26,12.65,47.59359,-54.27349
2022-01-10 15:14:00+00:00,247.0,6.62,251.0,7.14,12.65,47.59359,-54.27349
2022-01-10 15:24:00+00:00,234.0,6.87,233.0,7.63,12.65,47.59359,-54.27349
2022-01-10 15:34:00+00:00,232.0,6.65,229.0,7.49,12.65,47.59359,-54.27349
2022-01-10 15:44:00+00:00,231.0,6.92,230.0,7.9,12.65,47.59359,-54.27349
2022-01-10 15:54:00+00:00,234.0,6.3,239.0,7.39,12.65,47.59359,-54.27349
2022-01-10 16:04:00+00:00,240.0,6.89,242.0,7.67,12.65,47.59359,-54.27349
2022-01-10 16:14:00+00:00,234.0,6.35,236.0,7.39,12.73,47.59359,-54.27349
2022-01-10 16:24:00+00:00,234.0,6.38,235.0,7.61,12.73,47.59359,-54.27349
2022-01-10 16:34:00+00:00,235.0,6.46,236.0,7.55,12.73,47.59359,-54.27349
2022-01-10 16:44:00+00:00,233.0,6.61,230.0,7.56,12.73,47.59359,-54.27349
2022-01-10 16:54:00+00:00,225.0,6.97,214.0,8.26,12.73,47.59359,-54.27349
2022-01-10 17:04:00+00:00,232.0,6.4,230.0,7.4,12.73,47.59359,-54.27349
2022-01-10 17:14:01+00:00,233.0,7.91,230.0,8.84,12.81,47.59359,-54.27349
2022-01-10 17:24:01+00:00,227.0,7.56,225.0,8.65,12.81,47.59359,-54.27349
2022-01-10 17:34:01+00:00,224.0,8.35,223.0,10.25,12.81,47.59359,-54.27349
2022-01-10 17:44:01+00:00,228.0,8.61,231.0,10.62,12.81,47.59359,-54.27349
2022-01-10 17:54:01+00:00,232.0,9.12,237.0,11.46,12.81,47.59359,-54.27349
2022-01-10 18:04:01+00:00,229.0,8.9,232.0,10.05,12.81,47.59359,-54.27349
2022-01-10 18:14:01+00:00,234.0,9.9,238.0,11.76,12.73,47.59359,-54.27349
2022-01-10 18:24:01+00:00,228.0,9.4,221.0,11.92,12.73,47.59359,-54.27349
2022-01-10 18:34:01+00:00,235.0,10.32,238.0,12.09,12.73,47.59359,-54.27349
2022-01-10 18:44:01+00:00,265.0,11.23,265.0,16.34,12.73,47.59359,-54.27349
2022-01-10 18:54:01+00:00,260.0,9.62,264.0,10.97,12.73,47.59359,-54.27349
2022-01-10 19:04:01+00:00,262.0,9.97,259.0,11.23,12.73,47.59359,-54.27349
2022-01-10 19:14:01+00:00,257.0,10.21,265.0,12.81,12.49,47.59359,-54.27349
2022-01-10 19:24:01+00:00,259.0,10.07,250.0,12.01,12.49,47.59359,-54.27349
2022-01-10 19:34:01+00:00,263.0,9.14,266.0,13.77,12.49,47.59359,-54.27349
2022-01-10 19:44:01+00:00,258.0,9.88,258.0,11.32,12.49,47.59359,-54.27349
2022-01-10 19:54:01+00:00,260.0,8.69,263.0,9.95,12.49,47.59359,-54.27349
2022-01-10 20:04:01+00:00,266.0,10.03,264.0,11.69,12.49,47.59359,-54.27349
2022-01-10 20:14:00+00:00,262.0,8.2,261.0,9.56,12.41,47.59359,-54.27349
2022-01-10 20:24:00+00:00,261.0,9.41,262.0,11.1,12.41,47.59359,-54.27349
2022-01-10 20:34:00+00:00,263.0,8.6,259.0,10.17,12.41,47.59359,-54.27349
2022-01-10 20:44:00+00:00,255.0,10.1,251.0,11.27,12.41,47.59359,-54.27349
2022-01-10 20:54:00+00:00,256.0,9.21,265.0,11.66,12.41,47.59359,-54.27349
2022-01-10 21:04:00+00:00,251.0,10.67,255.0,12.21,12.41,47.59359,-54.27349
2022-01-10 21:14:01+00:00,250.0,9.73,249.0,11.26,12.25,47.59359,-54.27349
2022-01-10 21:24:01+00:00,248.0,9.48,247.0,11.42,12.25,47.59359,-54.27349
2022-01-10 21:34:01+00:00,246.0,11.15,244.0,12.71,12.25,47.59359,-54.27349
2022-01-10 21:44:01+00:00,250.0,10.55,248.0,12.34,12.25,47.59359,-54.27349
2022-01-10 21:54:01+00:00,256.0,10.21,259.0,12.45,12.25,47.59359,-54.27349
2022-01-10 22:04:01+00:00,255.0,9.93,256.0,11.69,12.25,47.59359,-54.27349
2022-01-10 22:14:01+00:00,311.0,12.27,312.0,13.93,12.25,47.59359,-54.27349
2022-01-10 22:24:01+00:00,289.0,10.14,299.0,11.23,12.25,47.59359,-54.27349
2022-01-10 22:34:01+00:00,291.0,9.98,292.0,11.38,12.25,47.59359,-54.27349
2022-01-10 22:44:01+00:00,297.0,10.48,308.0,12.72,12.25,47.59359,-54.27349
2022-01-10 22:54:01+00:00,279.0,9.72,294.0,11.13,12.25,47.59359,-54.27349
2022-01-10 23:04:01+00:00,280.0,10.94,277.0,16.29,12.25,47.59359,-54.27349
2022-01-10 23:14:01+00:00,291.0,9.32,289.0,10.51,12.25,47.59359,-54.27349
2022-01-10 23:24:01+00:00,280.0,9.39,280.0,10.92,12.25,47.59359,-54.27349
2022-01-10 23:34:01+00:00,303.0,9.73,302.0,11.15,12.25,47.59359,-54.27349
2022-01-10 23:44:01+00:00,290.0,8.79,290.0,10.51,12.25,47.59359,-54.27349
2022-01-10 23:54:01+00:00,293.0,9.29,291.0,11.08,12.25,47.59359,-54.27349
